CZ-7A R/B

Last updated on Fri Jul 24 2026 00:02:04 GMT+0000 (Coordinated Universal Time)

1 69675U 26144B 26203.16002724 .01103206 10639-4 94920-3 0 9998 2 69675 19.4340 311.5809 6979822 202.9941 97.3887 2.75416453 754
UTC large
Height (km)
Speed (km/s)
/
Latitude / Longitude
Inclination (degrees)
Orbital Period (minutes)
Azimuth
Elevation
Range (km)
Doppler Factor

Next 0 passes for location: London (51.5072 / 0.1276)

No passes found over London.
CZ-7A R/B